Location: Unspecified
(43.4354°N, 0.0000°E)
Time: 11:49:13
(UTC+00:00)

Vanguard 2 Rocket - Pass Details

Date: 19 June 2019
Orbit: 554 x 3326 km, 32.9° (Epoch: 22 July)

Event Time Altitude Azimuth Distance (km) Brightness Sun altitude
Rises 23:23:57 0° 247° (WSW) 4,610 10.4 -22.6°
Reaches altitude 10° 23:26:35 10° 242° (WSW) 3,930 9.9 -22.7°
Maximum altitude 23:37:21 54° 169° (S) 2,786 8.9 -22.9°
Drops below altitude 10° 23:54:43 10° 100° (E) 6,106 11.0 -23.1°
Sets 00:00:01 0° 97° (E) 7,272 11.4 -23.1°
